Weather in Shelayevo

Russia / Irkutsk Oblast     56°55′43″N   97°41′44″E
temp.,
°C
wind,
m/s
gust,
m/s
humid.,
%
clouds,
%
prec.,
mm/h
press.,
hPa
HPBL,
m
28 october, thu
thu2823:00−2w5115372 0.0 10241370
02:00−2w495369 0.0 10251227
05:00−3wsw3854100 0.0 10261041
08:00−3wsw385654 0.0 1027636
11:00−2wsw475044 0.0 10281157
14:000w4845100 0.0 10281790
17:00−1wsw374989 0.1 10291124
20:00−4sw22685 0.1 103024
29 october, fri
fri2923:00−4ssw117055 0.0 103113
02:00−4s226960 0.0 103164
05:00−3sse2664100 0.0 1030170
08:00−4sse266371 0.0 1029156
11:00−1sse3751100 0.0 1028281
14:00+1s3649100 0.0 1026399
17:00+1s2756100 0.0 1025248
20:00−1s2764100 0.0 1025157
30 october, sat
sat3023:00−1s2466100 0.0 102484
02:00−1s2970100 0.0 1023193
05:00−1s31077100 0.0 1022222
08:00−1s31086100 0.0 1022232
11:00+3ssw4146865 0.0 1021783
14:00+7sw5145399 0.0 10191482
17:00+5sw41062100 0.0 1018338
20:00+5wsw51154100 0.1 1018728
31 october, sun
sun3123:00+4wsw51167100 0.0 10191065
02:00−3wnw51287100 0.8 1022588
05:00−4w412584 0.0 10241271
08:00−4wsw496165 0.0 10251250
11:00−3wsw4951100 0.0 10251163
14:00−1wsw51043100 0.0 10231423
17:00−1sw2657100 0.0 1020596
20:00−2se2564100 0.0 1017124
1 november, mon
mon123:00−2se1172100 0.0 101426
02:00−2e1497100 1.0 1010120
05:00−2sse2698100 0.6 1008205
08:00+1sw41092100 1.6 1006656
11:00+1sw41197100 0.4 1006848
14:000w71292100 1.3 1008957
17:00−3w7137183 0.1 10141445
20:00−7w6126980 0.1 10191279